THOR ABLESTAR DEB, 158

Orbit data source: Space-Track

THOR ABLESTAR DEB, 158 is space debris in LEO originally from a launch on Thu, 29 Jun 1961 UTC launched from the Air Force Eastern Test Range (AFETR). Debris objects in space refer to the collection of defunct objects orbiting the Earth. Examples of debris include non-operational satellites, rocket bodies, and fragments generated from explosions, collisions, or faulty payload assembly.

Loading next visibility...
THOR ABLESTAR DEB details
Identifier
158, 1961-015AU
Orbit
LEO
Last TLE update15 hours ago
Origin
Flag of USUSAF SSD (US)
ManufacturerUnknown
MissionSpacecraft
Bus & MotorUnknown
MassUnknown
Launch date (UTC)
1961-06-29 (64 years ago)
Launch vehicleUnknown
Launch site
Air Force Eastern Test Range (AFETR)
Object type
Payload
Rocket body
Debris
Shape & HBRUnknown
Radar Cross SectionMedium (>0.1 m² and <1 m²)

Expand to show TLE details & history

TLE from 15 hours ago
0 THOR ABLESTAR DEB
1 00158U 61015AU  25013.77383173  .00000473  00000-0  13470-2 0  9998
2 00158  67.0740 147.4346 0610116 199.7164 157.9311 12.65959559939599
Epoch: 2025-01-13T18:34Z
Definitive object data (Epoch: 2025-01-13T18:34:19.061Z)
Latitude
Longitude115.36512°
Altitude1,843.917 km
Speed6.763 km/s
True Right ascension09h 49m 44s
True Declination0° 00' 00"
Sunlit
Object was in full shadow at TLE epoch
Visualization TLE readout
Latitude-60.95855°
Longitude-16.55059°
Altitude1,112.054 km
Speed7.44 km/s
Apparent Right ascension23h 08m 08s
Apparent Declination-53° 42' 07"
Sunlit
Object is in daylight
Visualization observer readout
Local Sidereal Time09:45:02
Azimuth218.607° SW
Elevation-70.333°
Doppler factor1
Orbital elements
Apogee altitude1,871.264 km
Perigee altitude922.529 km
Semi-major axis7,775.033 km
Eccentricity0.0610116
Inclination67.074°
RAAN147.4346°
Arg. of periapsis199.7164°
True anomaly160.38337°
Mean anomaly157.9311°
Eccentric anomaly159.17394°
Mean motion3.16585 °/min
BSTAR0.001347
Orbital period113.71 mins
Loading maneuver chart data...

THOR ABLESTAR DEB Visibility forecast

Observer location: undefined°, undefined

Span
Click to sort rows by Start time (UTC) header in descending order
Start Az.
Max El. time (UTC)
Max El. Az.
Max El.
End time (UTC)
End Az.
20 mins2025-01-14 09:49:09.374Z190.119° SSW2025-01-14 09:59:09.374Z112.577° SE42.511°2025-01-14 10:09:09.374Z33.906° NE
18 mins2025-01-14 11:48:09.374Z247.655° W2025-01-14 11:57:09.374Z312.016° NW32.872°2025-01-14 12:06:09.374Z18.689° NNE
8 mins2025-01-14 13:54:09.374Z315.227° NNW2025-01-14 13:57:09.374Z333.846° NNW14.074°2025-01-14 14:02:09.374Z6.55° NNE
10 mins2025-01-14 17:56:09.374Z353.604° N2025-01-14 18:01:09.374Z38.891° NE24.342°2025-01-14 18:06:09.374Z90.304° ESE
12 mins2025-01-14 19:53:09.374Z325.897° NNW2025-01-14 19:59:09.374Z253.979° W43.303°2025-01-14 20:05:09.374Z164.634° S
16 mins2025-01-15 08:35:09.374Z154.531° SSE2025-01-15 08:43:09.374Z101.09° ESE27.486°2025-01-15 08:51:09.374Z48.39° ENE
|